STECCO (47962 NORAD) Tracking and Keplerian Element Data

This shows tracking and keplerian element data for the satellite.

Feedback or suggestion? Click here.




ElementValue
Catalog47962
NameSTECCO
Epoch Orbit1269
Epoch Day173.91706032
Epoch Year2021
RAAN76.0977
Inclination97.5564
Eccentricity0.0015369
Argument of Perigee293.8536
Mean Anonmoly198.532
Mean Motion15.06812345
Decay Rate5.39E-06
L11 47962U 21022AG 21173.91706032 .00000539 00000-0 40298-4 0 9991
L22 47962 97.5564 76.0977 0015369 293.8536 198.5320 15.06812345 12693

Live tracking and technical data element details for STECCO (NORAD 47962). STECCO can be tracked NOW for your location showing map with azimuth and elevation plus other details from your city location.

Track the satellite on the map from your city or location and see movement details for azimuth, elevation, latitude, longitude, range, height, and movement on the map or in text.







IsCatalogInMostPopularTable: catalog: 47962, numindb: 33
Update: records affected: 1



GetName: 47962 STECCO

Hit Count: updated at: Thu, 24 Jun 2021 02:55:29 GMT